Location: Winthrop
(48.4780°N, 120.1850°W)
Time: 15:08:48
(UTC-07:00)

Vanguard 3 - Pass Details

Date: 13 February 2023
Orbit: 508 x 3249 km, 33.3° (Epoch: 22 March)

Event Time Altitude Azimuth Distance (km) Brightness Sun altitude
Rises 22:21:00 0° 257° (WSW) 4,852 11.4 -47.5°
Reaches altitude 10° 22:26:41 10° 232° (SW) 4,474 10.9 -48.1°
Enters shadow 22:28:02 11° 225° (SW) 4,488 10.8 -48.3°
